Home > Weather > Rheine > Past weeks

Flag for Germany Past Weather in Rheine, North Rhine-Westphalia, Germany — Yesterday and Last 2 Weeks

Now
61 °F

Passing clouds.


Feels Like: 61 °F
Forecast: 57 / 65 °F
Wind: 3 mph from North

Location: Rheine-Bentlage

Current Time: Jun 28, 2016 at 10:01:06 AM

Latest Report: Jun 28, 2016 at 9:20 AM


Visibility: N/A

Pressure: 30.09 "Hg

Humidity: 72%

Dew Point: 52 °F

Location of RheineLocation

Past Weather in Rheine — Graph

°F

Rheine Temperature Yesterday

Maximum temperature yesterday: 64 °F (at 1:20 PM)
Minimum temperature yesterday: 54 °F (at 2:20 AM)
Average temperature yesterday: 59 °F

High & Low Weather Summary for the Past Weeks

 TemperatureHumidityPressure
High90 °F (Jun 23, 6:20 PM)100% (Jun 13, 8:49 AM)30.24 "Hg (Jun 13, 8:49 AM)
Low48 °F (Jun 28, 4:20 AM)50% (Jun 16, 6:20 PM)29.45 "Hg (Jun 14, 4:20 PM)
Average62 °F84%29.90 "Hg
* Reported Jun 13 8:20 AM — Jun 28 8:20 AM, Rheine, Weather by CustomWeather, © 2016

Note: Actual official high and low records may vary slightly from our data, if they occured in-between our weather recording intervals... More about our weather records

Advertising

Rheine Weather History for the Previous 24 Hours

Scroll right to see more
 ConditionsComfort  
Time TempWeatherWind HumidityBarometerVisibility
8:20 AM
Tue, Jun 28
57 °FPassing clouds.3 mph88%30.09 "HgN/A
7:20 AM54 °FPassing clouds.3 mph100%30.09 "HgN/A
6:20 AM50 °FFog.1 mph100%30.09 "Hg4 mi
5:20 AM48 °FCool.2 mph100%30.09 "HgN/A
4:20 AM48 °FCool.1 mph100%30.09 "HgN/A
3:20 AM50 °FCool.2 mph100%30.09 "HgN/A
2:20 AM50 °FCool.1 mph100%30.09 "HgN/A
1:20 AM52 °FCool.2 mph94%30.09 "HgN/A
12:20 AM54 °FCool.3 mph94%30.09 "HgN/A
11:20 PM
Mon, Jun 27
54 °FCool.2 mph100%30.07 "HgN/A
10:20 PM57 °FCool.7 mph88%30.07 "HgN/A
9:20 PM59 °FCool.6 mph94%30.04 "HgN/A
8:20 PM61 °FCool.8 mph88%30.04 "HgN/A
7:20 PM59 °FCool.5 mph100%30.01 "HgN/A
6:20 PM63 °FMild.5 mph88%30.01 "HgN/A
5:20 PM63 °FMild.9 mph88%30.01 "HgN/A
4:20 PM63 °FMild.8 mph88%30.01 "HgN/A
3:20 PM63 °FPartly sunny.9 mph77%30.04 "HgN/A
2:20 PM63 °FPartly sunny.10 mph77%30.01 "HgN/A
1:20 PM64 °FPartly sunny.9 mph73%30.04 "HgN/A
12:20 PM63 °FBroken clouds.10 mph68%30.04 "HgN/A
11:20 AM63 °FBroken clouds.9 mph73%30.04 "HgN/A
10:20 AM61 °FPartly sunny.8 mph77%30.04 "HgN/A
Weather by CustomWeather, © 2016

See weather overviewHow to use our weather pages